Location: Bacea
(45.9500°N, 22.6667°E)
Time: 10:36:52
(UTC+00:00)

Cosmos 2084 Rocket - Pass Details

Date: 16 October 2021
Orbit: 508 x 671 km, 62.8° (Epoch: 07 December)

Event Time Altitude Azimuth Distance (km) Brightness Sun altitude
Rises 16:20:05 0° 224° (SW) 2,606 7.6 -7.5°
Reaches altitude 10° 16:22:15 10° 227° (SW) 1,720 6.7 -7.8°
Maximum altitude 16:26:04 69° 311° (NW) 549 3.5 -8.5°
Drops below altitude 10° 16:29:57 10° 36° (NE) 1,750 5.5 -9.2°
Enters shadow 16:31:30 - 38° (NE) 2,375 6.2 -9.4°
